Find Starlink 11311

NORAD ID: 61253 Int'l Des: 2024-175 Owner: SPXS Country: US Constellation: starlink operational
別名: STARLINK-11311 [DTC] celestrak
LEOCIRCULAR

現在のビュー

3D地球を読み込み中...

About Starlink 11311

Starlink 11311 (NORAD 61253) is a starlink constellation satellite (v2 mini d2c) launched Sep 25, 2024 by SPXS of US. It operates in LEO, CIRCULAR orbit with a mass of 960.00 kg.

次回通過

Passes for default location (London). Set your location on the main map for personalized predictions.

高度履歴

Loading altitude history...

軌道要素

1 61253U 24175L 26264.15328717 .00000829 00000-0 11703-4 0 9995
2 61253 53.1589 172.8882 0001042 88.7803 271.3335 15.69710188115273
Epoch: Sep 21, 2026 • Age: 8 hours

現在のステータス

高度 361.2 km
遠地点 / 近地点 N/A
速度 7.69 km/s
衛星直下点 -3.41°S, 1.09°W
打ち上げ日 Sep 25, 2024
運用期間 1.9 years
タイプ internet

技術仕様

分類 Payload
質量 960.00 kg
乾燥質量 910.00 kg
長さ 0.30 m
スパン 29.00 m
形状 ? Box + pan
製造者 SPXS
バスタイプ Starlink V2MD
フェーズステータス In Orbit
所有者/国 SPXS/US

Most Searched